Location: Brno
(49.2000°N, 16.6330°E)
Time: 06:37:51
(UTC+02:00)

Cosmos 2227 - Visible Passes

Search period start: 29 July 2014 00:00
Search period end: 08 August 2014 00:00
Orbit: 834 x 863 km, 71.0° (Epoch: 28 July)

Date Brightness Start Highest point End Pass type
(mag) Time Alt. Az. Time Alt. Az. Time Alt. Az.
29 Jul 4.8 00:06:17 34° SE 00:07:13 37° ESE 00:12:24 10° NE visible
29 Jul 5.0 01:48:13 23° WSW 01:51:21 44° NW 01:56:49 10° NNE visible
29 Jul 6.6 03:34:26 10° WNW 03:37:10 13° NNW 03:39:54 10° N visible
29 Jul 4.8 23:53:18 34° SE 23:54:14 36° ESE 23:59:24 10° NE visible
30 Jul 5.0 01:35:14 24° WSW 01:38:21 45° NW 01:43:50 10° NNE visible
30 Jul 6.6 03:21:23 10° WNW 03:24:09 14° NNW 03:26:56 10° N visible
30 Jul 4.9 23:40:17 34° SE 23:41:14 36° ESE 23:46:23 10° NE visible
31 Jul 5.0 01:22:13 24° WSW 01:25:21 45° NW 01:30:50 10° NNE visible
31 Jul 6.6 03:08:20 10° WNW 03:11:08 14° NNW 03:13:57 10° N visible
31 Jul 4.9 23:27:13 33° SE 23:28:15 35° ESE 23:33:23 10° NE visible
01 Aug 5.0 01:09:08 23° WSW 01:12:20 46° NW 01:17:51 10° NNE visible
01 Aug 6.7 02:55:17 10° WNW 02:58:07 14° NNW 03:00:58 10° N visible
01 Aug 4.9 23:14:05 32° SE 23:15:15 35° ESE 23:20:23 10° NE visible
02 Aug 5.0 00:56:00 22° WSW 00:59:20 46° NW 01:04:51 10° NNE visible
02 Aug 6.7 02:42:14 10° WNW 02:45:06 14° NNW 02:47:59 10° N visible
02 Aug 4.9 23:00:53 30° SE 23:02:16 35° ESE 23:07:22 10° NE visible
03 Aug 5.0 00:42:48 21° WSW 00:46:20 47° NW 00:51:52 10° NNE visible
03 Aug 6.7 02:29:11 10° WNW 02:32:05 14° NNW 02:35:01 10° N visible
03 Aug 4.9 22:47:37 29° SE 22:49:16 34° ESE 22:54:22 10° NE visible
04 Aug 5.0 00:29:31 19° WSW 00:33:20 47° NW 00:38:52 10° NNE visible
04 Aug 6.7 02:16:07 10° WNW 02:19:04 14° NNW 02:22:02 10° N visible
04 Aug 4.9 22:34:14 26° SE 22:36:17 34° ESE 22:41:21 10° NE visible
05 Aug 5.0 00:16:08 17° WSW 00:20:20 48° NW 00:25:52 10° NNE visible
05 Aug 6.8 02:03:04 10° WNW 02:06:03 14° NNW 02:09:03 10° N visible
05 Aug 4.9 22:20:43 23° SSE 22:23:17 33° ESE 22:28:21 10° NE visible
06 Aug 5.0 00:02:36 14° SW 00:07:19 48° NW 00:12:53 10° NNE visible
06 Aug 6.8 01:50:01 10° WNW 01:53:02 14° NNW 01:56:04 10° N visible
06 Aug 4.9 22:07:01 19° SSE 22:10:18 33° ESE 22:15:20 10° NE visible
06 Aug 5.0 23:48:54 10° SW 23:54:19 49° NW 23:59:53 10° NNE visible
07 Aug 6.8 01:36:58 10° WNW 01:40:01 14° NNW 01:43:05 10° N visible
07 Aug 4.9 21:53:03 13° SSE 21:57:19 32° ESE 22:02:20 10° NE visible
07 Aug 5.0 23:35:49 10° SW 23:41:19 49° NW 23:46:54 10° NNE visible
